User: anonymous   Login
Location: Holyhead Bay
(53.3667°N, 4.6667°W)
Time: 09:18:47
(UTC+00:00)
Language:

TECHNOSAT - Orbit

View from above orbital plane
View from above orbital plane
View from above satellite
View from above satellite

Ground track
Ground track

The orbit data is extracted from the following two-line orbital elements,

1 42829U 17042E   21167.11234573  .00000312  00000-0  36548-4 0  9998
2 42829  97.4692  36.7221 0014941 146.3208 213.8963 14.91289599213485
Epoch (UTC): 16 June 2021 02:41:46
Eccentricity: 0.0014941
inclination: 97.4692°
perigee height: 583 km
apogee height: 604 km
right ascension of ascending node: 36.7221°
argument of perigee: 146.3208°
revolutions per day: 14.91289599
mean anomaly at epoch: 213.8963°
orbit number at epoch: 21348

The dashed part of the orbit path shows where the satellite is in the earth's shadow,  

DLR